Find Starlink 31753

NORAD ID: 59484 Int'l Des: 2024-071 Owner: SPXS Country: US Constellation: starlink operational
LEOCIRCULAR

現在のビュー

3D地球を読み込み中...

About Starlink 31753

Starlink 31753 (NORAD 59484) is a starlink constellation satellite (v2 mini) launched Apr 13, 2024 by SPXS of US. It operates in LEO, CIRCULAR orbit with a mass of 730.00 kg.

次回通過

Passes for default location (London). Set your location on the main map for personalized predictions.

高度履歴

Loading altitude history...

軌道要素

1 59484U 24071A 26265.16887982 .00000906 00000-0 42433-4 0 9999
2 59484 43.0022 310.2127 0001271 277.7162 82.3545 15.27573933138253
Epoch: Sep 22, 2026 • Age: 27 hours

現在のステータス

高度 485.3 km
遠地点 / 近地点 N/A
速度 7.62 km/s
衛星直下点 -14.29°S, 173.52°W
打ち上げ日 Apr 13, 2024
運用期間 2.4 years
タイプ internet

技術仕様

分類 Payload
質量 730.00 kg
乾燥質量 700.00 kg
長さ 0.30 m
スパン 29.00 m
形状 ? Box + pan
製造者 SPXS
バスタイプ Starlink V2M
フェーズステータス In Orbit
所有者/国 SPXS/US

Most Searched